www.pogodaiklimat.ru

Погода и климат >> Архив погоды >> Канада >> Oshawa


ПОГОДА в Oshawa

  • Прогноз погоды в Oshawa
  • Монитор погоды в Oshawa
  • Климат города

АРХИВ ПОГОДЫ в Oshawa

Время (UTC), дата Ветер
(напр.,м/с)
 
Видим.   Явления Облачность Т
(С)
Тd
(С)
f
(%)
Тe
(С)
Тes
(С)
Комфортность P
(гПа)
Po
(гПа)
Тmin
(С)
Tmax
(С)
R
(мм)
R24
(мм)
S
(см)
09 18.06 В 1 16 км ясно +19.8 +16.7 82 +23 +23 комфорт 1011.7 995.2
12 18.06 Ю 1 16 км ясно +23.9 +18.2 70 +28 +33 душно 1011.3 994.8 +19.3 +29.6
15 18.06 ЮЗ 4 16 км 5/5 1000 м
[]
+30.9 +20.7 55 +38 +44 очень
душно
1009.8 993.4
18 18.06 Ю 3 16 км {осадки} 5/0
[]
+27.4 +22.0 72 +35 +47 очень
душно
1009.5 993.0 +19.3 +31.2 9
21 18.06 З 6 16 км {осадки} 9/9 1000 м
[]
+28.9 +20.3 60 +36 +36 очень
душно
1007.6 991.2
00 19.06 СЗ 6 16 км {осадки} 10/10 600 м
[]
+23.9 +20.1 79 +29 +29 душно 1009.1 992.6 +19.3 +31.2 0.5
03 19.06 СЗ 6 16 км {осадки} 5/5 300 м
[]
+20.9 +17.8 82 +25 +25 комфорт 1010.2 993.8
06 19.06 СЗ 3 16 км ясно +18.2 +14.9 81 +19 +19 1012.7 996.1 +18.2 +31.2 163
09 19.06 С 5 16 км ясно +17.0 +13.6 80 +16 +16 1014.0 997.4
12 19.06 С 5 16 км ясно +17.9 +11.8 67 +17 +19 1016.6 999.9 +16.6 +31.2
15 19.06 С 3 16 км ясно +20.2 +7.9 45 +22 +34 комфорт 1017.0 1000.3
18 19.06 Ю 5 16 км 3/0
[]
+20.0 +7.0 43 +21 +30 комфорт 1016.3 999.6 +16.6 +21.8
21 19.06 Ю 3 16 км 3/0
[]
+21.3 +9.2 46 +23 +29 комфорт 1015.0 998.3
00 20.06 Ю 3 16 км 9/0
[]
+19.3 +7.0 45 +20 +20 1014.6 997.9 +16.6 +23.0
03 20.06 З 1 16 км 9/0
[]
+17.1 +9.8 62 +18 +18 1014.7 998.0
06 20.06 С 1 16 км ясно +12.9 +9.9 82 +13 +13 1013.6 996.9 +12.4 +23.0
09 20.06 С 1 16 км 9/0
[]
+13.3 +10.4 83 +13 +13 1013.4 996.7
12 20.06 СЗ 2 16 км 9/0
[]
+16.8 +12.5 76 +17 +19 1013.3 996.6 +12.4 +23.0
15 20.06 З 1 16 км 10/0
[]
+19.4 +12.4 64 +22 +31 комфорт 1012.2 995.5
18 20.06 ЮЗ 3 16 км ясно +23.6 +10.1 42 +25 +40 комфорт 1010.9 994.2 +12.4 +23.9
21 20.06 ЮЗ 4 16 км ясно +23.3 +8.4 39 +25 +31 комфорт 1009.7 993.1
00 21.06 ЮЗ 3 16 км ясно +21.5 +7.6 41 +22 +23 комфорт 1009.1 992.5 +12.6 +24.6
03 21.06 С 2 16 км 10/0
[]
+17.0 +10.5 66 +17 +17 1010.3 993.7
06 21.06 С 3 16 км ясно +14.9 +10.6 75 +14 +14 1009.9 993.3 +12.6 +24.6
09 21.06 СВ 2 16 км ясно +15.8 +11.9 78 +16 +16 1010.5 993.9
12 21.06 СВ 4 16 км ясно +16.0 +7.6 57 +15 +18 1013.4 996.7 +14.0 +24.6
15 21.06 СВ 2 16 км 10/10 1000 м
[]
+18.1 +6.2 46 +19 +19 1014.0 997.3
18 21.06 Ю 3 16 км ясно +20.7 +7.4 42 +22 +38 комфорт 1013.7 997.0 +14.0 +20.9
21 21.06 ЮВ 3 16 км ясно +20.4 +6.5 40 +22 +29 комфорт 1013.1 996.4
00 22.06 Ю 2 16 км ясно +18.4 +5.4 42 +19 +20 1013.4 996.7 +14.9 +21.2
03 22.06 СВ 2 16 км ясно +11.9 +7.3 73 +11 +11 1015.0 998.2
06 22.06 СВ 3 16 км ясно +11.7 +5.1 64 +10 +10 1014.9 998.1 +11.0 +21.2
09 22.06 В 4 16 км ясно +13.4 +5.1 57 +12 +12 1014.7 997.9
12 22.06 В 4 16 км ясно +16.8 +5.2 46 +16 +19 1015.7 999.0 +9.0 +21.2
15 22.06 В 5 16 км 3/0
[]
+19.7 +5.2 39 +20 +28 1015.5 998.7
18 22.06 В 6 16 км 5/0
[]
+22.0 +6.2 36 +23 +28 комфорт 1014.2 997.5 +9.0 +23.0
21 22.06 В 6 16 км 3/0
[]
+21.2 +8.0 43 +22 +25 комфорт 1013.0 996.3
00 23.06 СВ 3 16 км 10/0 2000 м
[]
+20.5 +7.4 43 +22 +22 комфорт 1012.3 995.6 +9.0 +24.1
03 23.06 ЮВ 3 16 км слаб. дождь 10/10 600 м
[]
+17.3 +12.1 71 +17 +17 1012.7 996.0
06 23.06 В 4 16 км {осадки} 10/10 1500 м
[]
+16.6 +15.0 90 +16 +16 1011.3 994.7 +9.0 +24.1 2 15
09 23.06 В 3 16 км 10/0 2000 м
[]
+17.2 +14.3 83 +17 +17 1009.8 993.2
12 23.06 В 4 16 км 10/10 600 м
[]
+17.2 +13.7 80 +17 +17 1009.1 992.5 +16.2 +24.1
15 23.06 В 5 14 км 10/10 300 м
[]
+17.6 +14.7 83 +17 +17 1008.5 991.9
18 23.06 В 5 16 км {осадки} 10/10 300 м
[]
+17.6 +14.7 83 +17 +17 1007.7 991.1 +16.2 +18.0 0.5
21 23.06 В 3 16 км {осадки} 10/10 300 м
[]
+18.2 +16.1 88 +19 +19 1007.4 990.8
00 24.06 В 3 16 км {осадки} 10/10 300 м
[]
+18.1 +14.8 81 +19 +19 1007.2 990.6 +16.6 +19.4 0.3
03 24.06 С 2 16 км 10/10 200 м
[]
+17.5 +15.9 90 +18 +18 1008.3 991.7
06 24.06 З 1 16 км 10/10 300 м
[]
+17.2 +15.7 91 +18 +18 1008.6 992.0 +16.6 +19.4
09 24.06 ЮВ 1 16 км 10/10 300 м
[]
+17.0 +15.7 92 +18 +18 1008.5 991.9
12 24.06 В 2 16 км 10/10 300 м
[]
+17.3 +15.5 89 +18 +18 1010.0 993.3 +17.0 +19.4
15 24.06 В 1 3600 м слаб. дождь 10/10 600 м
[]
+17.6 +16.3 92 +19 +19 1011.0 994.3
18 24.06 С 3 16 км {осадки} 9/0
[]
+18.9 +15.2 79 +20 +30 1011.6 994.9 +17.0 +18.9 14
21 24.06 ЮЗ 2 16 км слаб. дождь {осадки} 9/9 1000 м
[]
+19.7 +15.8 78 +23 +24 комфорт 1012.3 995.6
00 25.06 З 3 16 км 10/10 1000 м
[]
+20.7 +16.0 74 +24 +24 комфорт 1014.0 997.3 +17.0 +20.9 1
03 25.06 С 6 16 км 10/0
[]
+17.6 +12.9 74 +17 +17 1016.1 999.3
06 25.06 С 2 16 км 5/5 1500 м
[]
+14.7 +11.2 80 +14 +14 1017.8 1001.0 +14.5 +20.9 3

 

Местоположение метеостанции Oshawa (Канада): широта 43.92 долгота -78.88 высота над уровнем моря 139 м.

В архиве по умолчанию представлена погода в Oshawa за последнюю неделю. Архивные данные за месяц целиком и за предыдущие месяцы, начиная с января 2011 года, Вы можете получить, выбрав интересующий диапазон дат из раскрывающегося списка и нажав кнопку "Ввод!".


*Определитесь, кто Вы:
робот инопланетянин человек

Внимание! Время в таблицах - всемирное. Для получения местного времени необходимо прибавить поправку, которая в Oshawa равна -5 ч.

Смотрите также архив погоды в соседних городах и на ближайших метеорологических станциях:

Погода в Toronto Buttonville (Канада) (39 км)
Погода в Buttonville (Канада) (39 км)
Погода в Toronto Aes Hq (Канада) (49 км)
Погода в Toronto City (Канада) (50 км)
Погода в Toronto Island Arpt (Канада) (53 км)
Погода в Peterborough Arpt (Канада) (54 км)
Погода в Cobourg (Канада) (58 км)
Погода в Toronto (Канада) (66 км)
Погода в Peterborough Trent (Канада) (67 км)
Погода в Lagoon City (Канада) (73 км)

Пояснения к столбцам:

Ветер - указаны скорость ветра в м/с - средняя за 10 мин, порывы в срок и между сроками (в фигурных скобках) и направление, откуда дует ветер: С - северный, СВ - северо-восточный, В - восточный, ЮВ - юго-восточный, Ю - южный, ЮЗ - юго-западный, З - западный, СЗ - северо-западный.
Видимость - горизонтальная дальность видимости в метрах или километрах. При видимости от 1 до 10 км при отсутствии осадков обычно наблюдается дымка, при ухудшении видимости до 1 км и менее - туман. В сухую погоду видимость может ухудшаться дымом, пылью или мглою.
Явления - указаны атмосферные явления, наблюдавшиеся в срок или в последний час перед сроком; фигурными скобками обозначены явления, наблюдавшиеся между сроками (за 1-3 часа до срока); квадратными скобками обозначены град или гололедные отложения с указанием их диаметра в мм.
Облачность - указаны через наклонную черту общая и нижняя облачность в баллах и высота нижней границы облаков в метрах; квадратными скобками обозначены формы облаков: Ci - перистые, Cs - перисто-слоистые, Cc - перисто-кучевые, Ac - высококучевые, As - высокослоистые, Sc - слоисто-кучевые, Ns - слоисто-дождевые, Cu - кучевые, Cb - кучево-дождевые. Подробнее классификацию облаков см. в Атласе облаков (PDF).
T - Температура воздуха - температура, измеренная на высоте 2 м над землей.
Td - Температура точки росы - температура, при понижении до которой содержащийся в воздухе водяной пар достигнет насыщения.
f - Относительная влажность воздуха - влажноcть воздуха, измеренная на высоте 2 м над землей.
Te - Эффективная температура - температура, которую ощущает одетый по сезону человек в тени. Характеристика душности погоды. При расчете учитывается влияние влажности воздуха и скорости ветра на теплоощущения человека.
Tes - Эффективная температура на солнце - температура, которую ощущает человек, с поправкой на солнечный нагрев. Характеристика знойности погоды. Зависит от высоты солнца над горизонтом, облачности и скорости ветра. Ночью, в пасмурную погоду, а также при ветре 12 м/с и более поправка равна нулю.
P - Атмосферное давление - приведенное к уровню моря атмосферное давление.
Po - Атмосферное давление - измеренное на уровне метеостанции атмосферное давление.
Tmin - Минимальная температура - минимум температуры воздуха на высоте 2 м над землей.
Tmax - Максимальная температура - максимум температуры воздуха на высоте 2 м над землей.
R - Количество осадков - Количество выпавших осадков за период времени, мм. При наведении курсора мыши на число - период времени, за который выпало указанное количество осадков.
R24 - Количество осадков - Количество выпавших осадков за 24 часа, мм.
S - Снежный покров - Высота снежного покрова, см. При наведении курсора мыши на число - состояние снежного покрова и степень покрытия местности в баллах.